Regional Weather Roundup
Issued by NWS

Home | Current Version | Previous Version | Text Only | Print | Product List | Glossary Off
Versions: 1 2 3 4 5 6 7 8 9 10 11 12 13 14 15 16 17 18 19 20 21 22 23 24 25 26 27 28 29 30 31 32 33 34 35 36 37 38 39 40 41 42 43 44 45 46 47 48 49 50

000
ASUS43 KLSX 290707
RWRMO

WEATHER SUMMARY FOR MISSOURI
NATIONAL WEATHER SERVICE SPRINGFIELD MO
100 AM CST THU JAN 29 2015

NOTE: "FAIR" INDICATES FEW OR NO CLOUDS BELOW 12,000 FEET WITH NO
       SIGNIFICANT WEATHER AND/OR OBSTRUCTIONS TO VISIBILITY.
       CURRENT SKY AND/OR WEATHER CONDITIONS ARE NOT AVAILABLE FOR
       CHILLICOTHE AND FARMINGTON.

MOZ001>031-035>038-043-044-053-054-290800-
...NORTHERN AND WESTERN MISSOURI...

CITY           SKY/WX    TMP DP  RH WIND       PRES   REMARKS
KANSAS CTY INT PTCLDY    48  37  65 NW20G32   29.90R
KANSAS C DTWN  CLEAR     52  38  58 NW14G26   29.89R
LEE`S SUMMIT   CLEAR     52  37  56 NW16G24   29.88R
ST JOSEPH      MOCLDY    46  37  71 N24G30    29.93R
CHILLICOTHE      N/A     48  37  65 NW15G24   29.84R
KIRKSVILLE     LGT RAIN  47  37  68 NW18G30   29.76R

$$
MOZ066>068-077>081-088>096-101>105-290800-
...SOUTHWEST MISSOURI...

CITY           SKY/WX    TMP DP  RH WIND       PRES   REMARKS
SPRINGFIELD    CLOUDY    61  40  45 SW17      29.86S
JOPLIN         CLOUDY    60  39  45 W13       29.94R

$$
MOZ032>034-039>042-045>050-055>058-069>072-290800-
...CENTRAL MISSOURI...

CITY           SKY/WX    TMP DP  RH WIND       PRES   REMARKS
COLUMBIA       PTCLDY    50  39  66 W6        29.77S
JEFFERSON CITY MOCLDY    55  39  54 SW9       29.78S
ROLLA          CLOUDY    50  38  63 S15       29.79F
SEDALIA        CLEAR     56  38  50 W17       29.82R
WHITEMAN AFB   CLEAR     55  37  51 NW18G24   29.83R
WARRENSBURG    CLEAR     54  36  50 NW15G23   29.85R
OSAGE BEACH    CLOUDY    59  39  47 W10G17    29.81R

$$
MOZ051-052-059>065-290800-
...EAST CENTRAL MISSOURI...

CITY           SKY/WX    TMP DP  RH WIND       PRES   REMARKS
ST LOUIS INTL  CLOUDY    54  38  54 SW20G28   29.77F
SPIRIT OF STL  CLOUDY    54  38  54 SW12G22   29.77F
ST CHARLES     CLOUDY    47  38  71 SW8       29.77F

$$
MOZ072>076-082>087-097>100-106>115-290800-
...SOUTH CENTRAL AND SOUTHEAST MISSOURI...

CITY           SKY/WX    TMP DP  RH WIND       PRES   REMARKS
CAPE GIRARDEAU CLOUDY    49  35  58 S17G24    29.92F
FARMINGTON     MOCLDY    48  36  61 S20G25    29.87F
POPLAR BLUFF   CLOUDY    48  36  63 S9        29.92F
WEST PLAINS    MOCLDY    49  38  65 SW6       29.89F

$$



USA.gov is the U.S. government's official web portal to all federal, state and local government web resources and services.